QPF
0.02 0.02 0.03 0.02 0.02 0.03 0.04 0.03 0.03 0.04 0.05 0.06 0.05 0.04 0.04 0.05 0.06 0.06 0.06 0.08 0.07 0.07 0.06 0.05 0.04 0.03 0.02 0.01 0.02 0.02 0.03 0.05 0.06 0.05 0.03 0.03 0.03 0.03 0.04 0.04 0.03 0.04 0.05
0.02 0.02 0.03 0.03 0.03 0.03 0.02 0.04 0.04 0.04 0.06 0.07 0.05 0.04 0.04 0.06 0.08 0.08 0.07 0.07 0.06 0.07 0.07 0.06 0.04 0.03 0.03 0.02 0.02 0.01 0.01 0.02 0.03 0.02 0.02 0.02 0.03 0.05 0.03 0.04 0.04 0.04 0.04
0.02 0.02 0.03 0.03 0.03 0.03 0.03 0.04 0.05 0.06 0.08 0.07 0.06 0.05 0.05 0.06 0.08 0.08 0.09 0.10 0.09 0.09 0.09 0.06 0.05 0.05 0.03 0.03 0.02 0.01 0.01 0.01 0.01 0.01 0.01 0.02 0.02 0.03 0.03 0.03 0.04 0.04 0.03
0.03 0.03 0.03 0.03 0.03 0.03 0.04 0.06 0.06 0.05 0.04 0.05 0.07 0.07 0.07 0.07 0.08 0.09 0.12 0.12 0.11 0.08 0.06 0.05 0.04 0.04 0.03 0.03 0.03 0.02 0.02 0.01 0.01 0.01 0.01 0.02 0.01 0.02 0.01 0.01 0.02 0.02 0.01
0.04 0.03 0.04 0.04 0.04 0.04 0.06 0.07 0.07 0.06 0.05 0.05 0.06 0.08 0.10 0.10 0.11 0.10 0.10 0.10 0.11 0.08 0.05 0.04 0.03 0.03 0.03 0.04 0.04 0.04 0.03 0.02 0.01 0.01 0.01 0.02 0.02 0.02 0.02 0.01 0.01 0.01 0.02
0.07 0.07 0.06 0.04 0.04 0.05 0.06 0.08 0.08 0.08 0.07 0.06 0.05 0.05 0.07 0.11 0.14 0.11 0.09 0.10 0.09 0.07 0.05 0.03 0.03 0.03 0.03 0.02 0.03 0.03 0.03 0.03 0.02 0.02 0.01 0.01 0.01 0.01 0.02 0.01 0.01 0.01 0.01
0.08 0.08 0.08 0.05 0.04 0.04 0.06 0.08 0.09 0.10 0.09 0.06 0.04 0.04 0.08 0.10 0.10 0.09 0.09 0.07 0.05 0.05 0.04 0.04 0.03 0.04 0.05 0.04 0.03 0.03 0.02 0.03 0.04 0.04 0.04 0.03 0.02 0.02 0.01 0.01 0.01 0.01 0.01
0.12 0.10 0.06 0.04 0.03 0.03 0.03 0.04 0.05 0.06 0.06 0.05 0.05 0.06 0.06 0.06 0.06 0.06 0.07 0.06 0.06 0.05 0.05 0.03 0.03 0.03 0.04 0.04 0.03 0.03 0.02 0.03 0.03 0.03 0.03 0.03 0.03 0.03 0.03 0.02 0.02 0.01 0.01
0.08 0.05 0.04 0.03 0.03 0.03 0.04 0.05 0.06 0.06 0.07 0.05 0.04 0.05 0.05 0.04 0.05 0.04 0.04 0.03 0.04 0.04 0.04 0.04 0.04 0.05 0.05 0.05 0.03 0.02 0.02 0.02 0.02 0.02 0.02 0.03 0.03 0.04 0.04 0.04 0.03 0.03 0.02
0.03 0.03 0.03 0.04 0.04 0.04 0.04 0.04 0.05 0.04 0.05 0.06 0.05 0.05 0.03 0.03 0.04 0.04 0.03 0.02 0.03 0.04 0.03 0.03 0.04 0.04 0.05 0.04 0.02 0.01 0.01 0.01 0.01 0.02 0.02 0.02 0.03 0.04 0.05 0.05 0.05 0.06 0.05
0.05 0.04 0.04 0.03 0.03 0.04 0.05 0.05 0.05 0.06 0.05 0.04 0.04 0.05 0.04 0.04 0.05 0.05 0.04 0.03 0.03 0.03 0.03 0.03 0.02 0.02 0.02 0.01 0.01 0.01 0.01 0.01 0.01 0.01 0.01 0.01 0.02 0.02 0.03 0.04 0.04 0.04 0.05
0.05 0.05 0.04 0.03 0.03 0.04 0.05 0.05 0.06 0.07 0.06 0.05 0.04 0.04 0.04 0.04 0.04 0.04 0.04 0.03 0.03 0.02 0.03 0.03 0.03 0.02 0.01 0.01 0.01 0.01 0.01 0.01 0.01 0.01 0.02 0.02 0.02 0.02 0.02 0.03 0.04 0.04 0.03
0.05 0.06 0.05 0.04 0.04 0.05 0.06 0.06 0.06 0.06 0.06 0.07 0.07 0.05 0.03 0.03 0.03 0.03 0.04 0.04 0.05 0.04 0.04 0.04 0.03 0.02 0.01 0.01 0.01 0.01 0.02 0.02 0.01 0.01 0.01 0.01 0.02 0.03 0.04 0.05 0.07 0.08 0.07
0.05 0.06 0.06 0.06 0.05 0.06 0.05 0.05 0.05 0.05 0.06 0.08 0.07 0.06 0.05 0.04 0.03 0.03 0.03 0.03 0.03 0.03 0.03 0.03 0.02 0.02 0.01 0.01 0.01 0.01 0.01 0.02 0.02 0.01 0.01 0.01 0.02 0.03 0.04 0.05 0.06 0.06 0.06
0.05 0.04 0.04 0.04 0.04 0.04 0.05 0.05 0.04 0.05 0.07 0.07 0.06 0.05 0.04 0.03 0.03 0.03 0.03 0.03 0.03 0.03 0.03 0.02 0.02 0.02 0.02 0.02 0.01 0.01 0.01 0.02 0.02 0.02 0.02 0.02 0.02 0.02 0.03 0.04 0.04 0.04 0.04
0.03 0.02 0.02 0.02 0.02 0.02 0.02 0.03 0.03 0.03 0.04 0.04 0.05 0.05 0.05 0.05 0.05 0.04 0.04 0.04 0.05 0.04 0.04 0.04 0.04 0.03 0.03 0.03 0.03 0.02 0.02 0.02 0.02 0.02 0.02 0.01 0.01 0.01 0.01 0.02 0.03 0.03 0.03
0.03 0.01 0.01 0.01 0.01 0.01 0.01 0.02 0.02 0.03 0.03 0.04 0.05 0.07 0.08 0.09 0.08 0.07 0.06 0.05 0.05 0.04 0.03 0.03 0.04 0.04 0.04 0.04 0.04 0.03 0.03 0.03 0.02 0.02 0.02 0.01 0.01 0.01 0.01 0.01 0.01 0.01 0.02
0.02 0.01 0.01 0.01 0.01 0.01 0.01 0.01 0.02 0.02 0.02 0.03 0.05 0.07 0.06 0.06 0.06 0.05 0.05 0.05 0.04 0.04 0.04 0.04 0.04 0.04 0.04 0.03 0.03 0.03 0.03 0.03 0.03 0.03 0.02 0.01 0.01 0.01 0.01 0.01 0.01 0.01 0.01
0.02 0.01 0.01 0.01 0.01 0.01 0.01 0.01 0.01 0.01 0.02 0.02 0.03 0.04 0.05 0.05 0.05 0.04 0.04 0.04 0.05 0.06 0.06 0.05 0.04 0.03 0.03 0.02 0.03 0.03 0.03 0.03 0.02 0.02 0.02 0.02 0.02 0.02 0.01 0.01 0.01 0.01 0.01
0.01 0.01 0.01 0.01 0.01 0.01 0.01 0.01 0.01 0.01 0.01 0.01 0.02 0.03 0.03 0.03 0.04 0.03 0.03 0.03 0.04 0.04 0.04 0.03 0.02 0.01 0.01 0.02 0.02 0.02 0.02 0.02 0.02 0.02 0.01 0.01 0.01 0.01 0.01 0.01 0.01 0.01 0.01
0.02 0.02 0.02 0.01 0.01 0.01 0.01 0.01 0.01 0.01 0.02 0.02 0.02 0.03 0.02 0.02 0.01 0.01 0.02 0.02 0.02 0.02 0.02 0.01 0.01 0.01 0.02 0.02 0.02 0.02 0.02 0.02 0.02 0.03 0.02 0.02 0.01 0.01 0.01 0.01 0.01 0.01 0.01
0.02 0.02 0.02 0.01 0.01 0.01 0.01 0.01 0.01 0.01 0.01 0.02 0.02 0.02 0.02 0.02 0.02 0.02 0.03 0.03 0.02 0.01 0.01 0.01 0.01 0.01 0.01 0.01 0.01 0.01 0.02 0.02 0.02 0.02 0.02 0.01 0.01 0.01 0.01 0.01 0.01 0.01 0.02
0.02 0.01 0.01 0.01 0.01 0.01 0.01 0.01 0.02 0.02 0.02 0.03 0.03 0.03 0.03 0.03 0.03 0.03 0.02 0.02 0.01 0.01 0.00 0.00 0.00 0.01 0.01 0.01 0.01 0.00 0.01 0.01 0.01 0.01 0.01 0.01 0.01 0.00 0.01 0.01 0.01 0.01 0.02
0.02 0.02 0.02 0.02 0.01 0.01 0.01 0.01 0.02 0.02 0.02 0.03 0.03 0.02 0.02 0.02 0.02 0.01 0.01 0.00 0.00 0.00 0.00 0.00 0.00 0.00 0.01 0.01 0.01 0.01 0.00 0.00 0.01 0.00 0.00 0.00 0.00 0.00 0.01 0.01 0.01 0.01 0.02
0.02 0.02 0.03 0.03 0.03 0.02 0.02 0.02 0.03 0.03 0.02 0.02 0.02 0.02 0.01 0.01 0.01 0.01 0.00 0.00 0.00 0.00 0.00 0.00 0.00 0.00 0.00 0.01 0.01 0.01 0.01 0.01 0.01 0.01 0.01 0.01 0.01 0.01 0.01 0.01 0.01 0.01 0.01
0.01 0.01 0.02 0.02 0.02 0.02 0.01 0.02 0.02 0.02 0.02 0.02 0.02 0.01 0.01 0.00 0.00 0.00 0.00 0.00 0.00 0.00 0.00 0.00 0.00 0.01 0.01 0.01 0.01 0.01 0.01 0.01 0.01 0.01 0.01 0.01 0.01 0.01 0.01 0.01 0.01 0.01 0.01
MSLP
1022.78 1023.07 1023.39 1023.68 1023.91 1024.07 1024.15 1024.16 1024.13 1024.08 1024.03 1023.99 1023.95 1023.91 1023.84 1023.75 1023.61 1023.44 1023.26 1023.08 1022.93 1022.83 1022.80 1022.85 1022.96 1023.14 1023.35 1023.61 1023.89 1024.20 1024.53 1024.90 1025.28 1025.68 1026.06 1026.41 1026.70 1026.90 1027.01 1027.02 1026.95 1026.84 1026.71
1023.41 1023.75 1024.09 1024.41 1024.67 1024.84 1024.94 1024.96 1024.92 1024.84 1024.75 1024.65 1024.56 1024.47 1024.37 1024.27 1024.15 1024.03 1023.91 1023.81 1023.74 1023.71 1023.73 1023.78 1023.88 1024.00 1024.14 1024.32 1024.51 1024.75 1025.02 1025.34 1025.71 1026.10 1026.50 1026.87 1027.18 1027.41 1027.54 1027.57 1027.51 1027.39 1027.25
1023.96 1024.34 1024.72 1025.07 1025.35 1025.54 1025.64 1025.66 1025.62 1025.52 1025.40 1025.26 1025.12 1025.00 1024.87 1024.76 1024.66 1024.58 1024.53 1024.50 1024.51 1024.55 1024.62 1024.70 1024.79 1024.89 1025.00 1025.11 1025.24 1025.40 1025.62 1025.89 1026.22 1026.58 1026.96 1027.33 1027.64 1027.87 1028.00 1028.04 1027.98 1027.87 1027.72
1024.38 1024.81 1025.23 1025.60 1025.90 1026.11 1026.22 1026.25 1026.21 1026.11 1025.98 1025.82 1025.66 1025.51 1025.37 1025.26 1025.18 1025.13 1025.13 1025.16 1025.23 1025.33 1025.44 1025.56 1025.66 1025.76 1025.83 1025.91 1025.99 1026.11 1026.27 1026.49 1026.77 1027.09 1027.43 1027.76 1028.04 1028.26 1028.39 1028.42 1028.37 1028.26 1028.13
1024.66 1025.14 1025.59 1025.98 1026.29 1026.52 1026.66 1026.71 1026.69 1026.61 1026.49 1026.35 1026.19 1026.04 1025.90 1025.80 1025.72 1025.70 1025.72 1025.79 1025.89 1026.03 1026.17 1026.31 1026.43 1026.52 1026.60 1026.65 1026.71 1026.79 1026.91 1027.08 1027.30 1027.56 1027.85 1028.13 1028.38 1028.56 1028.68 1028.71 1028.67 1028.58 1028.46
1024.83 1025.34 1025.81 1026.21 1026.54 1026.79 1026.96 1027.04 1027.07 1027.03 1026.96 1026.85 1026.72 1026.59 1026.46 1026.36 1026.29 1026.27 1026.30 1026.37 1026.49 1026.63 1026.79 1026.93 1027.06 1027.16 1027.23 1027.27 1027.32 1027.37 1027.46 1027.58 1027.76 1027.96 1028.20 1028.42 1028.63 1028.78 1028.87 1028.90 1028.88 1028.81 1028.72
1024.91 1025.44 1025.92 1026.33 1026.67 1026.94 1027.14 1027.28 1027.36 1027.39 1027.37 1027.32 1027.23 1027.13 1027.03 1026.93 1026.86 1026.83 1026.84 1026.90 1027.00 1027.13 1027.28 1027.42 1027.54 1027.64 1027.71 1027.76 1027.79 1027.83 1027.89 1027.99 1028.12 1028.28 1028.46 1028.63 1028.79 1028.92 1028.99 1029.02 1029.01 1028.97 1028.91
1024.93 1025.47 1025.94 1026.35 1026.70 1027.00 1027.24 1027.43 1027.57 1027.67 1027.72 1027.73 1027.69 1027.63 1027.55 1027.46 1027.38 1027.33 1027.32 1027.35 1027.42 1027.52 1027.64 1027.77 1027.88 1027.98 1028.05 1028.10 1028.14 1028.17 1028.22 1028.30 1028.39 1028.51 1028.65 1028.78 1028.90 1029.00 1029.06 1029.09 1029.10 1029.08 1029.05
1024.92 1025.44 1025.91 1026.32 1026.67 1026.99 1027.26 1027.50 1027.70 1027.86 1027.97 1028.04 1028.05 1028.02 1027.96 1027.88 1027.80 1027.73 1027.69 1027.69 1027.73 1027.81 1027.91 1028.02 1028.12 1028.22 1028.29 1028.35 1028.39 1028.43 1028.47 1028.53 1028.61 1028.70 1028.80 1028.90 1028.99 1029.06 1029.12 1029.14 1029.15 1029.15 1029.14
1024.86 1025.37 1025.82 1026.22 1026.58 1026.91 1027.21 1027.49 1027.73 1027.94 1028.10 1028.21 1028.26 1028.25 1028.21 1028.13 1028.05 1027.98 1027.93 1027.92 1027.94 1028.01 1028.10 1028.20 1028.31 1028.40 1028.49 1028.55 1028.60 1028.64 1028.68 1028.73 1028.79 1028.85 1028.93 1029.00 1029.07 1029.12 1029.16 1029.19 1029.20 1029.20 1029.20
1024.73 1025.22 1025.66 1026.06 1026.42 1026.76 1027.08 1027.37 1027.65 1027.88 1028.07 1028.20 1028.27 1028.28 1028.26 1028.20 1028.13 1028.07 1028.03 1028.03 1028.07 1028.14 1028.24 1028.35 1028.47 1028.57 1028.66 1028.73 1028.78 1028.82 1028.85 1028.89 1028.94 1028.99 1029.04 1029.10 1029.15 1029.18 1029.21 1029.22 1029.22 1029.22 1029.21
1024.50 1024.98 1025.41 1025.80 1026.17 1026.52 1026.84 1027.15 1027.43 1027.67 1027.86 1028.00 1028.08 1028.11 1028.10 1028.07 1028.03 1028.00 1028.01 1028.04 1028.12 1028.22 1028.35 1028.48 1028.61 1028.72 1028.82 1028.88 1028.93 1028.96 1028.99 1029.01 1029.04 1029.08 1029.11 1029.15 1029.19 1029.21 1029.22 1029.22 1029.21 1029.19 1029.17
1024.16 1024.63 1025.06 1025.45 1025.83 1026.17 1026.51 1026.81 1027.09 1027.32 1027.50 1027.64 1027.72 1027.76 1027.77 1027.77 1027.78 1027.81 1027.87 1027.96 1028.09 1028.25 1028.41 1028.57 1028.72 1028.84 1028.93 1028.99 1029.02 1029.04 1029.04 1029.05 1029.06 1029.08 1029.10 1029.13 1029.16 1029.17 1029.18 1029.16 1029.13 1029.09 1029.04
1023.70 1024.17 1024.60 1025.01 1025.39 1025.75 1026.08 1026.38 1026.64 1026.86 1027.03 1027.15 1027.23 1027.28 1027.32 1027.36 1027.42 1027.51 1027.64 1027.81 1028.00 1028.21 1028.41 1028.60 1028.76 1028.88 1028.95 1028.99 1029.00 1028.98 1028.96 1028.95 1028.94 1028.95 1028.96 1028.99 1029.01 1029.02 1029.02 1029.00 1028.96 1028.91 1028.83
1023.14 1023.62 1024.06 1024.49 1024.89 1025.26 1025.59 1025.89 1026.14 1026.34 1026.49 1026.59 1026.67 1026.73 1026.80 1026.88 1027.00 1027.15 1027.34 1027.57 1027.82 1028.07 1028.31 1028.51 1028.67 1028.77 1028.82 1028.83 1028.80 1028.76 1028.71 1028.67 1028.65 1028.65 1028.66 1028.69 1028.72 1028.74 1028.74 1028.72 1028.68 1028.61 1028.52
1022.54 1023.02 1023.48 1023.93 1024.35 1024.73 1025.08 1025.37 1025.61 1025.80 1025.93 1026.03 1026.10 1026.18 1026.26 1026.38 1026.54 1026.74 1026.99 1027.26 1027.55 1027.82 1028.06 1028.26 1028.40 1028.47 1028.49 1028.46 1028.40 1028.32 1028.25 1028.20 1028.17 1028.17 1028.20 1028.24 1028.28 1028.32 1028.33 1028.32 1028.28 1028.21 1028.10
1021.93 1022.43 1022.91 1023.37 1023.81 1024.21 1024.56 1024.86 1025.09 1025.27 1025.40 1025.49 1025.56 1025.64 1025.75 1025.88 1026.07 1026.30 1026.57 1026.86 1027.15 1027.42 1027.65 1027.82 1027.92 1027.96 1027.94 1027.88 1027.79 1027.70 1027.61 1027.56 1027.54 1027.55 1027.59 1027.65 1027.72 1027.78 1027.81 1027.81 1027.78 1027.70 1027.59
1021.37 1021.86 1022.35 1022.83 1023.29 1023.70 1024.06 1024.36 1024.59 1024.76 1024.89 1024.97 1025.05 1025.13 1025.24 1025.39 1025.58 1025.82 1026.08 1026.36 1026.63 1026.87 1027.06 1027.19 1027.26 1027.26 1027.20 1027.12 1027.02 1026.92 1026.84 1026.80 1026.79 1026.83 1026.90 1026.98 1027.07 1027.15 1027.19 1027.21 1027.18 1027.10 1026.98
1020.85 1021.34 1021.83 1022.31 1022.77 1023.19 1023.56 1023.86 1024.09 1024.26 1024.38 1024.47 1024.55 1024.63 1024.74 1024.88 1025.06 1025.27 1025.51 1025.75 1025.98 1026.17 1026.31 1026.40 1026.42 1026.39 1026.32 1026.23 1026.12 1026.04 1025.98 1025.97 1025.99 1026.05 1026.15 1026.25 1026.36 1026.44 1026.50 1026.52 1026.48 1026.41 1026.28
1020.36 1020.83 1021.32 1021.79 1022.25 1022.66 1023.02 1023.32 1023.55 1023.72 1023.85 1023.94 1024.01 1024.09 1024.19 1024.32 1024.48 1024.66 1024.85 1025.04 1025.22 1025.36 1025.45 1025.49 1025.48 1025.43 1025.35 1025.26 1025.18 1025.12 1025.09 1025.11 1025.16 1025.25 1025.36 1025.48 1025.59 1025.67 1025.72 1025.73 1025.69 1025.60 1025.46
1019.87 1020.32 1020.78 1021.24 1021.67 1022.07 1022.42 1022.72 1022.95 1023.12 1023.25 1023.34 1023.42 1023.50 1023.59 1023.70 1023.83 1023.97 1024.12 1024.25 1024.37 1024.46 1024.50 1024.50 1024.47 1024.41 1024.34 1024.27 1024.21 1024.19 1024.20 1024.25 1024.33 1024.43 1024.55 1024.66 1024.75 1024.82 1024.84 1024.83 1024.76 1024.66 1024.51
1019.34 1019.75 1020.18 1020.61 1021.03 1021.41 1021.74 1022.02 1022.25 1022.43 1022.56 1022.66 1022.75 1022.82 1022.91 1023.00 1023.11 1023.21 1023.32 1023.41 1023.47 1023.51 1023.52 1023.49 1023.44 1023.39 1023.32 1023.28 1023.26 1023.26 1023.30 1023.37 1023.46 1023.57 1023.67 1023.76 1023.82 1023.85 1023.84 1023.79 1023.69 1023.56 1023.39
1018.75 1019.13 1019.52 1019.92 1020.30 1020.66 1020.97 1021.24 1021.47 1021.65 1021.79 1021.90 1021.99 1022.08 1022.16 1022.24 1022.33 1022.41 1022.47 1022.52 1022.55 1022.55 1022.52 1022.48 1022.43 1022.37 1022.32 1022.30 1022.30 1022.32 1022.38 1022.45 1022.54 1022.63 1022.70 1022.75 1022.77 1022.75 1022.69 1022.60 1022.47 1022.31 1022.13
1018.10 1018.45 1018.81 1019.17 1019.53 1019.86 1020.16 1020.42 1020.64 1020.82 1020.97 1021.09 1021.20 1021.29 1021.37 1021.45 1021.52 1021.57 1021.61 1021.63 1021.62 1021.60 1021.55 1021.49 1021.43 1021.37 1021.33 1021.31 1021.32 1021.36 1021.41 1021.48 1021.54 1021.59 1021.63 1021.63 1021.59 1021.52 1021.42 1021.28 1021.12 1020.95 1020.76
1017.43 1017.75 1018.09 1018.43 1018.76 1019.07 1019.35 1019.60 1019.81 1020.00 1020.15 1020.28 1020.40 1020.50 1020.58 1020.66 1020.71 1020.75 1020.76 1020.76 1020.72 1020.67 1020.60 1020.52 1020.45 1020.39 1020.34 1020.32 1020.33 1020.35 1020.39 1020.43 1020.47 1020.48 1020.47 1020.42 1020.34 1020.22 1020.08 1019.91 1019.73 1019.54 1019.35
1016.80 1017.10 1017.42 1017.74 1018.05 1018.34 1018.61 1018.85 1019.05 1019.23 1019.39 1019.52 1019.64 1019.74 1019.82 1019.89 1019.93 1019.95 1019.94 1019.91 1019.85 1019.77 1019.68 1019.59 1019.50 1019.42 1019.37 1019.34 1019.33 1019.33 1019.35 1019.36 1019.36 1019.34 1019.29 1019.20 1019.08 1018.93 1018.76 1018.58 1018.39 1018.20 1018.02
Thickness
5774 5771 5769 5765 5762 5759 5755 5752 5750 5747 5744 5741 5739 5737 5735 5733 5731 5728 5726 5724 5722 5720 5720 5718 5716 5716 5715 5714 5713 5711 5708 5706 5700 5696 5696 5697 5696 5695 5694 5693 5691 5690 5689
5774 5770 5768 5764 5761 5758 5754 5751 5748 5745 5742 5739 5736 5734 5732 5730 5727 5725 5723 5721 5719 5717 5715 5714 5712 5712 5711 5709 5708 5706 5704 5702 5698 5693 5692 5691 5691 5689 5688 5686 5685 5684 5682
5773 5770 5766 5762 5759 5756 5753 5749 5746 5742 5739 5736 5733 5730 5728 5726 5724 5722 5720 5718 5716 5714 5712 5710 5708 5707 5705 5704 5703 5701 5699 5698 5695 5691 5688 5686 5684 5683 5681 5680 5678 5676 5675
5771 5767 5763 5760 5757 5754 5751 5747 5743 5740 5735 5732 5729 5726 5725 5723 5721 5719 5717 5714 5712 5710 5709 5707 5705 5703 5701 5700 5698 5695 5694 5691 5689 5686 5683 5680 5678 5676 5674 5672 5670 5667 5665
5767 5764 5760 5757 5754 5750 5747 5744 5740 5736 5732 5728 5725 5722 5720 5718 5717 5714 5712 5710 5707 5705 5703 5702 5701 5699 5698 5696 5694 5691 5688 5685 5683 5679 5676 5674 5671 5669 5666 5665 5662 5659 5657
5763 5759 5756 5752 5749 5746 5742 5739 5735 5732 5728 5725 5721 5718 5715 5714 5712 5710 5708 5705 5702 5700 5698 5697 5696 5694 5692 5691 5689 5687 5685 5681 5677 5674 5670 5668 5665 5663 5660 5658 5655 5653 5650
5756 5753 5749 5746 5743 5740 5737 5734 5729 5726 5723 5719 5716 5713 5711 5709 5707 5705 5704 5701 5698 5695 5693 5692 5691 5689 5687 5685 5682 5680 5677 5674 5672 5669 5665 5662 5659 5657 5655 5651 5648 5646 5643
5749 5746 5743 5740 5737 5734 5731 5727 5724 5721 5718 5714 5710 5708 5705 5703 5701 5700 5698 5695 5692 5690 5688 5686 5684 5682 5681 5678 5675 5672 5669 5666 5664 5662 5659 5657 5654 5651 5648 5645 5641 5637 5633
5742 5739 5737 5735 5732 5728 5725 5721 5718 5715 5711 5708 5705 5702 5700 5697 5695 5693 5692 5689 5686 5683 5681 5679 5678 5676 5674 5671 5668 5664 5661 5658 5656 5654 5652 5649 5647 5644 5641 5638 5633 5630 5626
5736 5733 5732 5729 5726 5722 5718 5714 5711 5708 5705 5702 5698 5696 5693 5690 5688 5686 5685 5682 5678 5675 5673 5672 5670 5668 5666 5663 5660 5657 5653 5650 5647 5646 5643 5641 5638 5635 5632 5629 5626 5622 5618
5730 5727 5725 5722 5719 5716 5712 5708 5704 5701 5697 5693 5690 5687 5685 5683 5681 5679 5678 5675 5671 5668 5665 5663 5661 5659 5657 5654 5652 5649 5645 5642 5639 5637 5634 5631 5629 5626 5623 5620 5617 5614 5611
5722 5720 5717 5714 5712 5709 5705 5701 5697 5694 5690 5685 5681 5678 5676 5674 5672 5671 5669 5667 5664 5661 5657 5655 5652 5650 5648 5645 5642 5639 5636 5634 5630 5627 5624 5621 5618 5616 5613 5610 5607 5604 5601
5714 5711 5708 5706 5703 5700 5697 5693 5689 5686 5682 5678 5674 5670 5668 5666 5664 5663 5660 5658 5656 5653 5649 5646 5644 5641 5639 5636 5632 5630 5627 5624 5621 5618 5614 5611 5608 5606 5604 5601 5597 5594 5591
5704 5701 5699 5696 5693 5690 5688 5685 5681 5678 5675 5671 5667 5663 5660 5657 5656 5654 5652 5649 5647 5644 5640 5637 5635 5633 5630 5627 5623 5620 5618 5615 5612 5609 5605 5602 5600 5597 5594 5591 5588 5585 5581
5694 5692 5689 5686 5684 5680 5677 5674 5672 5669 5668 5664 5661 5658 5654 5651 5648 5647 5644 5641 5639 5636 5632 5629 5626 5623 5620 5617 5614 5610 5607 5605 5602 5599 5596 5593 5590 5588 5584 5581 5577 5575 5571
5687 5683 5680 5677 5675 5672 5669 5665 5662 5660 5659 5657 5654 5651 5647 5644 5641 5639 5636 5633 5629 5626 5623 5619 5616 5613 5610 5607 5604 5601 5598 5595 5592 5589 5587 5584 5581 5578 5574 5570 5567 5564 5562
5679 5676 5672 5669 5667 5664 5662 5660 5656 5653 5650 5648 5645 5642 5639 5636 5633 5631 5627 5624 5620 5618 5615 5611 5607 5603 5600 5598 5595 5592 5589 5585 5582 5579 5576 5573 5570 5568 5564 5561 5557 5554 5551
5671 5669 5666 5662 5660 5658 5655 5653 5650 5647 5643 5639 5635 5632 5630 5628 5625 5622 5619 5616 5612 5609 5606 5603 5599 5595 5592 5589 5586 5583 5579 5576 5573 5570 5567 5563 5560 5558 5555 5551 5548 5544 5541
5663 5660 5657 5655 5652 5650 5647 5644 5641 5639 5635 5632 5628 5624 5621 5619 5616 5613 5611 5608 5605 5601 5598 5594 5591 5587 5584 5580 5577 5574 5571 5567 5564 5561 5557 5554 5551 5548 5545 5542 5539 5534 5531
5655 5653 5651 5648 5645 5641 5639 5636 5633 5630 5628 5624 5621 5617 5614 5611 5608 5605 5602 5599 5597 5594 5591 5587 5583 5580 5576 5573 5569 5566 5562 5559 5555 5552 5549 5545 5542 5539 5536 5533 5530 5526 5523
5647 5645 5643 5640 5637 5634 5631 5627 5625 5622 5620 5616 5613 5610 5607 5605 5602 5598 5595 5592 5590 5587 5583 5580 5576 5572 5568 5565 5561 5558 5555 5551 5548 5544 5541 5537 5534 5531 5527 5524 5521 5518 5515
5639 5637 5634 5631 5628 5625 5622 5620 5617 5615 5612 5609 5605 5602 5599 5597 5594 5591 5588 5585 5582 5579 5575 5571 5568 5564 5560 5557 5553 5550 5547 5544 5540 5536 5533 5529 5526 5523 5520 5517 5514 5510 5507
5632 5629 5626 5623 5620 5617 5614 5612 5609 5607 5605 5602 5599 5596 5592 5589 5586 5583 5580 5577 5574 5570 5567 5564 5560 5556 5553 5549 5546 5543 5540 5536 5532 5529 5525 5522 5519 5515 5512 5509 5506 5503 5500
5624 5622 5619 5616 5613 5610 5607 5605 5602 5600 5598 5595 5591 5588 5585 5583 5580 5576 5572 5569 5566 5563 5560 5556 5553 5549 5546 5542 5539 5535 5532 5528 5525 5521 5518 5515 5512 5508 5505 5501 5498 5495 5492
5616 5614 5612 5608 5606 5603 5600 5598 5596 5594 5591 5588 5585 5582 5579 5576 5573 5570 5566 5562 5559 5555 5552 5549 5546 5542 5539 5535 5532 5529 5525 5522 5518 5514 5511 5507 5504 5501 5497 5494 5491 5488 5485
5608 5607 5604 5601 5598 5596 5593 5591 5589 5587 5585 5582 5579 5576 5573 5570 5567 5563 5560 5556 5552 5549 5545 5542 5539 5535 5532 5528 5525 5522 5518 5515 5511 5507 5503 5500 5496 5493 5490 5487 5484 5481 5477